Simultaneous Nadir Overpasses (SNOs) Predictions

Prediction of SNOs between AURA and NPP Satellite Orbit:

Table of predicted SNOs for the next 14.0 days since TLE Epoch: 2/19/2022
Index Date (AURA) Time (AURA) Lat,Lon (AURA) SZA (AURA ) Date (NPP) Time (NPP) Lat,Lon (NPP) SZA (NPP ) Distance(km) Time Diff (sec)
1 02/21/2022 03:41:43 -79.66,-157.32 76.85 02/21/2022 03:41:40 -79.66,-157.36 76.84 0.83 3
2 02/21/2022 04:30:38 80.68, 19.66 101.43 02/21/2022 04:31:52 80.55, 19.90 101.34 14.89 74
3 02/23/2022 19:08:53 79.47, 149.59 102.46 02/23/2022 19:07:56 79.47, 149.53 102.52 1.23 57
4 02/23/2022 19:58:13 -79.74, -40.83 77.95 02/23/2022 19:58:33 -79.75, -40.79 77.98 1.13 20
5 02/26/2022 11:25:20 79.62, -93.49 101.25 02/26/2022 11:24:46 79.63, -93.40 101.26 2.04 34
6 02/26/2022 12:14:43 -79.78, 75.31 79.01 02/26/2022 12:15:27 -79.77, 75.21 79.02 2.09 44
7 03/01/2022 03:41:50 79.68, 22.83 100.14 03/01/2022 03:41:40 79.68, 22.84 100.15 0.30 10
8 03/01/2022 04:31:11 -79.91,-167.78 80.23 03/01/2022 04:32:18 -79.91,-167.66 80.30 2.43 67
9 03/03/2022 19:08:59 -79.56, -29.84 80.70 03/03/2022 19:07:55 -79.56, -29.71 80.68 2.83 64



Historial Predications of SNOs between AURA and NPP
